Flag for U.S.A. Weather past 2 weeks in Shreveport, Louisiana, U.S.A.

Now
58 °F

Partly sunny.


Feels Like: 58 °F
Forecast: 42 / 57 °F
Wind: 5 mph from North

Location: Shreveport Regional Airport

Current Time: Jan 30, 2015 at 4:31:22 PM

Latest Report: Jan 30, 2015 at 2:56 PM


Visibility: 10 mi

Pressure: 30.37 "Hg

Humidity: 33%

Dew point: 29 °F

Location of ShreveportLocation

Historic Weather in Shreveport — Graph

°F

Shreveport temperature yesterday

Maximum temperature yesterday: 75 °F (at 1:56 PM)
Minimum temperature yesterday: 49 °F (at 11:56 PM)
Average temperature yesterday: 61 °F

Past Weeks' High & Low Weather Summary

 TemperatureHumidityPressure
High76 °F (Jan 27, 2:56 PM)100% (Jan 20, 7:56 AM)30.51 "Hg (Jan 20, 7:56 AM)
Low29 °F (Jan 16, 6:56 AM)15% (Jan 18, 2:56 PM)29.85 "Hg (Jan 25, 1:56 PM)
Average50 °F63%30.14 "Hg
* Reported Jan 15 2:56 PM — Jan 30 2:56 PM, Shreveport, Weather by CustomWeather, © 2014

Note: Actual official high and low records may vary slightly from our data, if they occured in-between our weather recording intervals... More about our weather records

Advertising

Shreveport weather history for previous 24 hours

 ConditionsComfort  
Time TempWeatherWind HumidityBarometerVisibility
2:56 PM
Jan 30
58 °FPartly sunny.5 mph33%30.37 "Hg10 mi
1:56 PM56 °FSunny.6 mph36%30.39 "Hg10 mi
12:56 PM54 °FPartly sunny.6 mph38%30.42 "Hg10 mi
11:56 AM51 °FPartly sunny.5 mph44%30.47 "Hg10 mi
10:56 AM48 °FPartly sunny.8 mph52%30.50 "Hg10 mi
9:56 AM45 °FPartly sunny.15 mph56%30.50 "Hg10 mi
8:56 AM44 °FPartly sunny.13 mph58%30.51 "Hg10 mi
7:56 AM42 °FPartly sunny.10 mph65%30.48 "Hg10 mi
6:56 AM40 °FPartly cloudy.8 mph70%30.46 "Hg10 mi
5:56 AM41 °FHigh level clouds.6 mph67%30.45 "Hg10 mi
4:56 AM43 °FHigh level clouds.10 mph62%30.43 "Hg10 mi
3:56 AM44 °FHigh level clouds.12 mph63%30.43 "Hg10 mi
2:56 AM45 °FClear.13 mph65%30.43 "Hg10 mi
1:56 AM46 °FHigh level clouds.8 mph66%30.42 "Hg10 mi
12:56 AM47 °FHigh level clouds.12 mph64%30.42 "Hg10 mi
11:56 PM
Jan 29
49 °FHigh level clouds.15 mph59%30.42 "Hg10 mi
10:56 PM50 °FHigh level clouds.14 mph54%30.41 "Hg10 mi
9:56 PM53 °FHigh level clouds.21 mph55%30.38 "Hg10 mi
8:56 PM56 °FHigh level clouds.20 mph53%30.35 "Hg10 mi
7:56 PM59 °FPassing clouds.16 mph49%30.32 "Hg10 mi
6:56 PM64 °FPassing clouds.9 mph40%30.27 "Hg10 mi
5:56 PM66 °FPassing clouds.13 mph36%30.22 "Hg10 mi
4:56 PM72 °FPartly sunny.12 mph29%30.19 "Hg10 mi
Weather by CustomWeather, © 2014

See weather overviewHow to use our weather pages